If you wish to contribute or participate in the discussions about articles you are invited to join SKYbrary as a registered user

 Actions

Akhiok Airport

From SKYbrary Wiki

PAKH
Airport
ICAO: PAKH – IATA: AKK
Summary
Name Akhiok Airport
Region North America
Territory Alaska US.gif
Location Akhiok, Alaska
Serving Akhiok
Elevation 13.411 m
44 ft
44 ft13.411 m
Type small airport
Coordinates 56° 56' 19.00" N, 154° 10' 57.00" W
Runways
Designator Length Width Surface ROPS
4/22 951 m3,120.079 ft
15 m49.213 ft
GRAVEL-G /


METAR
Observation PAKH 221456Z AUTO 32013G18KT 10SM CLR 01/M07 A3025 RMK AO2 SLP246 T00061072 58005 FZRANO $
Station AKHIOK
Date/Time 22 February 2019 14:56:00
Wind direction 320°
Wind speed 13 kts
Lowest cloud amount n/a
Temperature 0.6°C
Dew point
Humidity 55%
QNH hPa
Weather condition n/a

Maps

Terrain

Loading map...

Airport Layout

Loading map...


Accidents & Serious Incidents at or in vicinity of PAKH

None on SKYbrary